FW7817 Weather Reports


Display with metric or nautical units.
time (UTC)temp
F
wind
direction
speed
MPH
gust
MPH
rain 1hr
in
rain 24hr
in
rain mn
in
humidity
%
barometer
mb
20260507234419 72 165 1.0 4.0 0.00 0.00 0.00 40 1010.5
20260507232919 73 193 1.0 9.0 0.00 0.00 0.00 41 1010.5
20260507232419 73 177 2.0 9.0 0.00 0.00 0.00 41 1010.5
20260507231918 73 182 1.0 4.0 0.00 0.00 0.00 40 1010.5
20260507230919 73 256 1.0 4.0 0.00 0.00 0.00 42 1010.6
20260507230417 73 202 1.0 6.0 0.00 0.00 0.00 42 1010.7
20260507225916 73 215 1.0 6.0 0.00 0.00 0.00 40 1010.8
20260507225411 73 190 1.0 4.0 0.00 0.00 0.00 40 1010.7
20260507224358 73 128 1.0 7.0 0.00 0.00 0.00 41 1010.8
20260507223853 73 231 2.0 8.0 0.00 0.00 0.00 40 1011.0
20260507223352 73 194 2.0 8.0 0.00 0.00 0.00 41 1010.9
20260507222852 73 263 2.0 8.0 0.00 0.00 0.00 41 1011.0
20260507222352 72 155 2.0 8.0 0.00 0.00 0.00 42 1011.1
20260507221854 72 213 2.0 8.0 0.00 0.00 0.00 41 1011.1
20260507221355 71 200 2.0 8.0 0.00 0.00 0.00 42 1011.2
20260507220851 72 201 2.0 8.0 0.00 0.00 0.00 41 1011.2
20260507220348 72 261 2.0 8.0 0.00 0.00 0.00 40 1011.4
20260507214851 72 150 2.0 7.0 0.00 0.00 0.00 42 1011.6
20260507214346 72 221 2.0 11.0 0.00 0.00 0.00 41 1011.5
20260507213846 72 165 2.0 11.0 0.00 0.00 0.00 44 1011.6
20260507213346 72 264 2.0 7.0 0.00 0.00 0.00 41 1011.5
20260507212844 72 244 2.0 9.0 0.00 0.00 0.00 42 1011.6
20260507211844 72 202 2.0 12.0 0.00 0.00 0.00 43 1011.7
20260507211343 72 67 3.0 12.0 0.00 0.00 0.00 41 1011.7
20260507210839 72 290 3.0 11.0 0.00 0.00 0.00 42 1011.8
20260507210331 72 302 3.0 11.0 0.00 0.00 0.00 42 1011.8
20260507205826 72 211 3.0 11.0 0.00 0.00 0.00 40 1011.9
20260507205320 73 200 2.0 11.0 0.00 0.00 0.00 42 1012.0
20260507204814 72 225 3.0 10.0 0.00 0.00 0.00 43 1012.2
20260507203802 72 70 2.0 9.0 0.00 0.00 0.00 45 1012.4
20260507203255 72 221 2.0 9.0 0.00 0.00 0.00 43 1012.5
20260507202750 72 209 3.0 8.0 0.00 0.00 0.00 45 1012.5
20260507202246 71 142 3.0 9.0 0.00 0.00 0.00 45 1012.7
20260507201233 71 147 3.0 10.0 0.00 0.00 0.00 45 1013.0
20260507200726 71 263 3.0 11.0 0.00 0.00 0.00 46 1013.0
20260507200220 71 217 3.0 11.0 0.00 0.00 0.00 46 1013.2
20260507195714 71 229 3.0 11.0 0.00 0.00 0.00 46 1013.3
20260507195208 71 153 3.0 12.0 0.00 0.00 0.00 48 1013.2
20260507194702 71 269 4.0 15.0 0.00 0.00 0.00 47 1013.3
20260507194156 70 246 4.0 15.0 0.00 0.00 0.00 47 1013.4
20260507193650 70 188 4.0 13.0 0.00 0.00 0.00 45 1013.4
20260507193144 70 162 3.0 13.0 0.00 0.00 0.00 46 1013.5
20260507192638 70 258 3.0 10.0 0.00 0.00 0.00 50 1013.6
20260507192132 69 158 3.0 10.0 0.00 0.00 0.00 47 1013.7
20260507191626 69 284 3.0 14.0 0.00 0.00 0.00 49 1013.8
20260507190613 69 203 3.0 10.0 0.00 0.00 0.00 48 1013.9
20260507190108 69 238 3.0 10.0 0.00 0.00 0.00 50 1014.0
20260507185601 69 230 3.0 14.0 0.00 0.00 0.00 51 1014.0
20260507185057 69 292 3.0 14.0 0.00 0.00 0.00 49 1014.2
20260507184044 69 174 3.0 9.0 0.00 0.00 0.00 51 1014.3
20260507183032 68 285 3.0 10.0 0.00 0.00 0.00 53 1014.4
20260507182526 68 136 3.0 10.0 0.00 0.00 0.00 53 1014.3
20260507182020 68 244 4.0 12.0 0.00 0.00 0.00 54 1014.6
20260507181514 67 238 4.0 12.0 0.00 0.00 0.00 52 1014.6
20260507181007 67 263 3.0 11.0 0.00 0.00 0.00 53 1014.7
20260507180503 68 182 2.0 5.0 0.00 0.00 0.00 55 1014.7
20260507175452 67 262 3.0 13.0 0.00 0.00 0.00 57 1015.0
20260507174943 66 225 4.0 13.0 0.00 0.00 0.00 53 1015.1
20260507174438 66 259 4.0 13.0 0.00 0.00 0.00 55 1015.1
20260507173932 66 211 3.0 13.0 0.00 0.00 0.00 55 1015.2
20260507173426 67 209 2.0 9.0 0.00 0.00 0.00 55 1015.2
20260507172921 66 221 3.0 10.0 0.00 0.00 0.00 54 1015.3
20260507172413 66 222 3.0 10.0 0.00 0.00 0.00 57 1015.5
20260507171909 65 268 3.0 12.0 0.00 0.00 0.00 55 1015.6
20260507171402 66 251 3.0 13.0 0.00 0.00 0.00 54 1015.7
20260507170857 65 254 4.0 13.0 0.00 0.00 0.00 56 1015.8
20260507165845 65 186 3.0 13.0 0.00 0.00 0.00 54 1016.0
20260507165343 65 250 2.0 13.0 0.00 0.00 0.00 55 1016.1
20260507164842 65 263 3.0 12.0 0.00 0.00 0.00 56 1016.1
20260507164343 65 246 4.0 16.0 0.00 0.00 0.00 55 1016.1
20260507163842 65 281 4.0 19.0 0.00 0.00 0.00 56 1016.1
20260507163342 65 252 5.0 19.0 0.00 0.00 0.00 54 1016.2
20260507162841 65 236 3.0 12.0 0.00 0.00 0.00 54 1016.3
20260507162341 65 224 2.0 11.0 0.00 0.00 0.00 56 1016.2
20260507161341 65 271 3.0 11.0 0.00 0.00 0.00 55 1016.6
20260507160841 64 284 3.0 11.0 0.00 0.00 0.00 56 1016.6
20260507160341 64 246 3.0 10.0 0.00 0.00 0.00 57 1016.6
20260507155843 64 195 3.0 16.0 0.00 0.00 0.00 56 1016.7
20260507155343 63 238 4.0 19.0 0.00 0.00 0.00 55 1016.7
20260507154842 63 281 4.0 19.0 0.00 0.00 0.00 56 1016.7
20260507154342 63 246 3.0 11.0 0.00 0.00 0.00 57 1016.9
20260507153842 63 245 3.0 11.0 0.00 0.00 0.00 56 1016.7
20260507153342 63 192 3.0 13.0 0.00 0.00 0.00 58 1016.7
20260507152842 63 257 3.0 13.0 0.00 0.00 0.00 59 1016.7
20260507151842 62 263 3.0 12.0 0.00 0.00 0.00 59 1016.9
20260507150842 62 277 3.0 13.0 0.00 0.00 0.00 60 1017.1
20260507150342 62 240 3.0 12.0 0.00 0.00 0.00 59 1017.2
20260507145841 61 237 3.0 12.0 0.00 0.00 0.00 60 1017.1
20260507145341 61 265 3.0 12.0 0.00 0.00 0.00 60 1017.3
20260507144841 61 260 3.0 12.0 0.00 0.00 0.00 62 1017.3
20260507143843 60 213 2.0 8.0 0.00 0.00 0.00 61 1017.4
20260507143340 60 227 2.0 9.0 0.00 0.00 0.00 63 1017.3
20260507141828 58 240 3.0 11.0 0.00 0.00 0.00 65 1017.4
20260507141321 58 238 3.0 15.0 0.00 0.00 0.00 64 1017.3
20260507140815 58 238 4.0 15.0 0.00 0.00 0.00 65 1017.4
20260507135808 57 235 3.0 10.0 0.00 0.00 0.00 68 1017.5
20260507135306 56 257 3.0 10.0 0.00 0.00 0.00 66 1017.4
20260507134806 56 227 3.0 8.0 0.00 0.00 0.00 68 1017.5
20260507134306 56 273 2.0 10.0 0.00 0.00 0.00 69 1017.4
20260507133306 54 238 2.0 8.0 0.00 0.00 0.00 72 1017.5
20260507132807 53 254 2.0 8.0 0.00 0.00 0.00 74 1017.6
20260507131805 51 252 2.0 7.0 0.00 0.00 0.00 78 1017.5
20260507131305 50 269 2.0 7.0 0.00 0.00 0.00 81 1017.6
20260507130805 49 233 1.0 4.0 0.00 0.00 0.00 83 1017.6
20260507130305 48 254 1.0 4.0 0.00 0.00 0.00 85 1017.6
20260507125805 47 244 0.0 2.0 0.00 0.00 0.00 85 1017.7
20260507125306 47 244 0.0 3.0 0.00 0.00 0.00 85 1017.7
20260507124801 46 244 1.0 3.0 0.00 0.00 0.00 85 1017.5
20260507124259 46 262 0.0 3.0 0.00 0.00 0.00 85 1017.6
20260507123758 46 226 0.0 1.0 0.00 0.00 0.00 84 1017.5
20260507123253 46 226 0.0 1.0 0.00 0.00 0.00 84 1017.6
20260507122747 45 237 0.0 1.0 0.00 0.00 0.00 84 1017.6
20260507122240 45 246 0.0 2.0 0.00 0.00 0.00 84 1017.6
20260507121735 45 247 0.0 3.0 0.00 0.00 0.00 84 1017.6
20260507121228 45 247 0.0 3.0 0.00 0.00 0.00 83 1017.7
20260507120723 45 243 0.0 0.0 0.00 0.00 0.00 83 1017.7
20260507120217 45 243 0.0 1.0 0.00 0.00 0.00 83 1017.7
20260507115711 45 243 0.0 2.0 0.00 0.00 0.00 83 1017.6
20260507115205 45 245 0.0 2.0 0.00 0.00 0.00 83 1017.6
20260507114658 45 246 0.0 3.0 0.00 0.00 0.00 83 1017.6
20260507114152 45 232 0.0 3.0 0.00 0.00 0.00 82 1017.6
20260507113647 46 252 0.0 3.0 0.00 0.00 0.00 82 1017.6
20260507113141 46 252 0.0 3.0 0.00 0.00 0.00 82 1017.6
20260507112129 46 250 0.0 2.0 0.00 0.00 0.00 82 1017.6
20260507111623 46 248 1.0 4.0 0.00 0.00 0.00 81 1017.6
20260507111117 46 248 1.0 4.0 0.00 0.00 0.00 81 1017.6
20260507110611 46 260 1.0 4.0 0.00 0.00 0.00 81 1017.6
20260507110106 46 251 0.0 2.0 0.00 0.00 0.00 81 1017.6
20260507105600 46 252 1.0 4.0 0.00 0.00 0.00 80 1017.6
20260507105053 46 250 1.0 4.0 0.00 0.00 0.00 80 1017.6
20260507104040 46 256 1.0 3.0 0.00 0.00 0.00 80 1017.7
20260507103536 46 248 1.0 3.0 0.00 0.00 0.00 80 1017.6
20260507103030 46 248 1.0 4.0 0.00 0.00 0.00 80 1017.7
20260507102523 47 247 1.0 6.0 0.00 0.00 0.00 79 1017.7
20260507102016 47 252 1.0 6.0 0.00 0.00 0.00 79 1017.7
20260507101511 47 259 1.0 4.0 0.00 0.00 0.00 79 1017.8
20260507101005 47 247 1.0 4.0 0.00 0.00 0.00 78 1017.8
20260507100458 47 252 1.0 4.0 0.00 0.00 0.00 78 1017.9
20260507095953 47 244 1.0 3.0 0.00 0.00 0.00 78 1017.8
20260507095447 47 243 1.0 3.0 0.00 0.00 0.00 78 1017.8
20260507094941 47 240 1.0 3.0 0.00 0.00 0.00 77 1017.9
20260507094435 47 234 1.0 3.0 0.00 0.00 0.00 77 1017.9
20260507093928 47 257 1.0 4.0 0.00 0.00 0.00 76 1017.9
20260507093423 47 252 1.0 4.0 0.00 0.00 0.00 76 1017.9
20260507092917 48 250 1.0 3.0 0.00 0.00 0.00 76 1017.9
20260507091905 48 257 1.0 6.0 0.00 0.00 0.00 75 1017.8
20260507091359 48 263 1.0 6.0 0.00 0.00 0.00 75 1018.1
20260507090852 48 234 0.0 3.0 0.00 0.00 0.00 75 1018.1
20260507085848 48 229 1.0 8.0 0.00 0.00 0.00 74 1018.2
20260507085344 48 256 1.0 8.0 0.00 0.00 0.00 74 1018.1
20260507084844 48 264 1.0 4.0 0.00 0.00 0.00 74 1018.1
20260507084346 49 263 1.0 10.0 0.00 0.00 0.00 74 1018.2
20260507082841 48 223 1.0 4.0 0.00 0.00 0.00 73 1018.3
20260507081340 48 240 1.0 7.0 0.00 0.00 0.00 73 1018.5
20260507080342 49 242 1.0 5.0 0.00 0.00 0.00 73 1018.4
20260507075841 49 261 2.0 5.0 0.00 0.00 0.00 72 1018.3
20260507075340 49 234 2.0 6.0 0.00 0.00 0.00 72 1018.4
20260507074841 49 229 2.0 6.0 0.00 0.00 0.00 72 1018.4
20260507074342 49 264 1.0 6.0 0.00 0.00 0.00 72 1018.4
20260507073341 49 221 1.0 3.0 0.00 0.00 0.00 71 1018.4
20260507072840 49 215 1.0 4.0 0.00 0.00 0.00 71 1018.4
20260507072341 49 252 1.0 4.0 0.00 0.00 0.00 71 1018.5
20260507071842 49 260 1.0 4.0 0.00 0.00 0.00 70 1018.5
20260507070340 49 242 1.0 3.0 0.00 0.00 0.00 70 1018.6
20260507065840 50 243 1.0 3.0 0.00 0.00 0.00 70 1018.7
20260507065340 50 243 1.0 5.0 0.00 0.00 0.00 69 1018.7
20260507064840 50 247 1.0 5.0 0.00 0.00 0.00 69 1018.8
20260507064339 50 239 1.0 4.0 0.00 0.00 0.00 69 1018.8
20260507063838 50 249 1.0 3.0 0.00 0.00 0.00 69 1018.9
20260507063339 50 246 1.0 3.0 0.00 0.00 0.00 69 1018.9
20260507062840 50 241 1.0 6.0 0.00 0.00 0.00 69 1018.9
20260507062337 51 239 1.0 6.0 0.00 0.00 0.00 68 1018.9
20260507061330 51 242 1.0 4.0 0.00 0.00 0.00 68 1019.1
20260507060824 51 232 1.0 5.0 0.00 0.00 0.00 68 1019.1
20260507060319 51 250 1.0 5.0 0.00 0.00 0.00 68 1019.1
20260507055812 51 225 1.0 4.0 0.00 0.00 0.00 68 1019.2
20260507055307 51 222 1.0 7.0 0.00 0.00 0.00 67 1019.2
20260507054800 51 241 1.0 7.0 0.00 0.00 0.00 67 1019.2
20260507054254 51 253 1.0 5.0 0.00 0.00 0.00 66 1019.1
20260507053748 51 218 1.0 5.0 0.00 0.00 0.00 66 1019.1
20260507053241 51 227 0.0 4.0 0.00 0.00 0.00 66 1019.1
20260507052737 51 227 0.0 4.0 0.00 0.00 0.00 66 1019.1
20260507052230 50 225 1.0 3.0 0.00 0.00 0.00 66 1019.3
20260507051724 50 224 1.0 3.0 0.00 0.00 0.00 66 1019.1
20260507051218 50 218 1.0 3.0 0.00 0.00 0.00 66 1019.1
20260507050712 50 249 0.0 3.0 0.00 0.00 0.00 67 1019.1
20260507050206 50 250 1.0 3.0 0.00 0.00 0.00 67 1019.1
20260507045702 50 256 1.0 3.0 0.00 0.00 0.00 67 1019.2
20260507045154 50 255 1.0 3.0 0.00 0.00 0.00 67 1019.3
20260507044143 49 265 0.0 4.0 0.00 0.00 0.00 68 1019.1
20260507043637 49 265 0.0 6.0 0.00 0.00 0.00 68 1019.1
20260507043132 49 300 0.0 2.0 0.00 0.01 0.00 68 1019.2
20260507042625 49 304 0.0 1.0 0.00 0.01 0.00 68 1019.2
20260507042119 49 304 0.0 2.0 0.00 0.01 0.00 68 1019.3
20260507041612 48 304 0.0 2.0 0.00 0.01 0.00 68 1019.3
20260507041108 48 306 0.0 1.0 0.00 0.01 0.00 69 1019.3
20260507040602 48 306 0.0 1.0 0.00 0.01 0.00 69 1019.3
20260507040054 48 306 0.0 1.0 0.00 0.02 0.00 69 1019.3
20260507035553 48 306 0.0 0.0 0.00 0.02 0.00 68 1019.3
20260507035053 48 306 0.0 0.0 0.00 0.02 0.00 68 1019.2
20260507034553 48 306 0.0 0.0 0.00 0.02 0.00 69 1019.1
20260507034053 48 306 0.0 0.0 0.00 0.03 0.00 69 1019.2
20260507033553 48 306 0.0 0.0 0.00 0.03 0.00 70 1019.1
20260507033053 48 306 0.0 0.0 0.00 0.03 0.00 70 1019.2
20260507032554 49 306 0.0 0.0 0.00 0.03 0.00 71 1019.4
20260507032054 49 306 0.0 0.0 0.00 0.03 0.00 71 1019.3
20260507031551 49 306 0.0 0.0 0.00 0.03 0.00 70 1019.3
20260507031052 49 306 0.0 0.0 0.00 0.03 0.00 69 1019.4
20260507030552 49 306 0.0 0.0 0.00 0.03 0.00 68 1019.4
20260507030052 49 306 0.0 0.0 0.00 0.03 0.00 67 1019.3
20260507025551 50 306 0.0 0.0 0.00 0.03 0.00 66 1019.3
20260507024551 50 306 0.0 0.0 0.00 0.03 0.00 64 1019.1
20260507024050 50 306 0.0 0.0 0.00 0.03 0.00 63 1018.9
20260507023546 51 306 0.0 0.0 0.00 0.03 0.00 64 1018.9
20260507023046 51 306 0.0 0.0 0.00 0.03 0.00 63 1018.9
20260507022541 51 306 0.0 0.0 0.00 0.03 0.00 63 1018.9
20260507022036 52 306 0.0 0.0 0.00 0.03 0.00 64 1018.9
20260507021530 53 306 0.0 0.0 0.00 0.03 0.00 62 1018.9
20260507021023 53 306 0.0 0.0 0.00 0.03 0.00 60 1018.9
20260507020517 53 306 0.0 0.0 0.00 0.03 0.00 59 1018.8
20260507020011 54 306 0.0 0.0 0.00 0.03 0.00 58 1018.7
20260507015504 54 306 0.0 0.0 0.00 0.03 0.00 56 1018.7
20260507014959 55 306 0.0 0.0 0.00 0.03 0.00 57 1018.7
20260507014453 55 306 0.0 0.0 0.00 0.03 0.00 53 1018.5
20260507013951 56 306 0.0 0.0 0.00 0.03 0.00 51 1018.5
20260507013451 56 306 0.0 0.0 0.00 0.03 0.00 49 1018.5
20260507012951 56 306 0.0 0.0 0.00 0.03 0.00 45 1018.4
20260507012451 57 306 0.0 0.0 0.00 0.03 0.00 43 1018.5
20260507011950 57 306 0.0 0.0 0.00 0.03 0.00 42 1018.4
20260507011451 57 306 0.0 0.0 0.00 0.03 0.00 42 1018.4
20260507010950 58 306 0.0 1.0 0.00 0.03 0.00 42 1018.4
20260507010451 58 306 0.0 1.0 0.00 0.03 0.00 42 1018.5
20260507004950 58 306 0.0 2.0 0.00 0.03 0.00 41 1018.5
20260507004450 58 306 0.0 2.0 0.00 0.03 0.00 40 1018.4
20260507003951 58 306 0.0 2.0 0.00 0.03 0.00 40 1018.5
20260507003451 59 306 1.0 3.0 0.00 0.03 0.00 40 1018.3
20260507002950 59 311 1.0 3.0 0.00 0.03 0.00 40 1018.3
20260507002451 59 297 1.0 3.0 0.00 0.03 0.00 40 1018.3
20260507001948 59 297 1.0 3.0 0.00 0.03 0.00 40 1018.4
20260507000949 59 296 1.0 3.0 0.00 0.03 0.00 41 1018.3
20260507000450 59 230 1.0 3.0 0.00 0.03 0.00 39 1018.3
20260506235949 59 308 1.0 5.0 0.00 0.03 0.00 40 1018.4
20260506235449 59 248 2.0 8.0 0.00 0.03 0.00 38 1018.4
20260506234953 59 296 1.0 8.0 0.00 0.03 0.00 39 1018.4